Regional Weather Roundup
Issued by NWS Upton, NY

Current Version | Previous Version | Text Only | Print | Product List | Glossary On
Versions: 1 2 3 4 5 6 7 8 9 10 11 12 13 14 15 16 17 18 19 20 21 22 23 24 25 26 27 28 29 30 31 32 33 34 35 36 37 38 39 40 41 42 43 44 45 46 47 48 49 50
000
ASUS41 KOKX 200605
RWROKX

REGIONAL WEATHER ROUNDUP
NATIONAL WEATHER SERVICE NEW YORK NY
200 AM EDT WED AUG 20 2014

NOTE: "FAIR" INDICATES FEW OR NO CLOUDS BELOW 12,000 FEET WITH NO
SIGNIFICANT WEATHER AND/OR OBSTRUCTIONS TO VISIBILITY.

NYZ071-072-176-178-NJZ106-104-200700-
NEW YORK CITY METRO AREA


CITY           SKY/WX    TMP DP  RH WIND       PRES   REMARKS
CENTRAL PARK   FAIR      70  62  76 S5        29.96F
LAGUARDIA APRT MOCLDY    71  65  81 S5        29.93F
KENNEDY INTL   FAIR      69  64  84 CALM      29.95S
NEWARK/LIBERTY FAIR      71  65  81 S3        29.94S
BRNX BOT. GARD   N/A     66  64  94 E1        29.94F
TETERBORO      FAIR      70  63  78 CALM      29.92F
$$

NYZ177-179-078>081-200700-
LONG ISLAND NEW YORK

CITY           SKY/WX    TMP DP  RH WIND       PRES   REMARKS
FARMINGDALE    FAIR      65  63  93 CALM      29.94F
ISLIP          FAIR      64  61  90 CALM      29.93F
SHIRLEY        FAIR      61  59  93 CALM      29.95F
WESTHAMPTON    FOG       55  52  89 CALM      29.96F VSB 3/4
MONTAUK POINT    N/A     64  62  93 CALM      29.97R
$$

NYZ052-065-067-200700-
HUDSON VALLEY

CITY           SKY/WX    TMP DP  RH WIND       PRES   REMARKS
WHITE PLAINS   FAIR      64  63  96 CALM      29.94F
NEWBURGH       CLEAR     64  61  88 CALM      29.95F
MONTGOMERY     LGT RAIN  60  58  92 CALM      29.95S
POUGHKEEPSIE   FAIR      62  59  90 CALM      29.93F
ALBANY         FAIR      60  57  89 CALM      29.95S
$$

NJZ001-105-106-008-010-013-015-019>022-104-200700-
NEW JERSEY

CITY           SKY/WX    TMP DP  RH WIND       PRES   REMARKS
NEWARK/LIBERTY FAIR      71  65  81 S3        29.94S
TETERBORO      FAIR      70  63  78 CALM      29.92F
CALDWELL       FAIR      65  61  87 CALM      29.95S
MORRISTOWN     FAIR      64  61  88 CALM      29.95S
SOMERVILLE     CLOUDY    64  61  90 CALM      29.92F
LINDEN         FAIR      74  68  81 CALM      29.96S
SUSSEX         CLOUDY    65  61  87 CALM      29.95S
ANDOVER          N/A     64  62  93 CALM      29.96R
TRENTON        CLOUDY    68  62  81 CALM      29.94R
MILLVILLE      CLOUDY    66  64  93 CALM      29.93S
ATLANTIC CITY  MOCLDY    64  62  93 CALM      29.93S
WRIGHTSTOWN    MOCLDY    65  63  93 CALM      29.92S
TOMS RIVER     MOCLDY    61  59  94 CALM      29.94F
BELMAR         FAIR      64  59  82 CALM      29.93F
$$

PAZ047>061-062-071-200700-
EASTERN PENNSYLVANIA

CITY           SKY/WX    TMP DP  RH WIND       PRES   REMARKS
PHILADELPHIA   CLOUDY    73  64  73 SW3       29.94S
ALLENTOWN      CLOUDY    72  63  73 CALM      29.94S
SCRANTON       FAIR      70  61  73 CALM      29.94S
$$

CTZ002-004>006-009-010-012-RIZ004-006-007-MAZ004-011-015-200700-
SOUTHERN NEW ENGLAND
 IN CT

CITY           SKY/WX    TMP DP  RH WIND       PRES   REMARKS
BRADLEY INTL   FAIR      61  57  87 N3        29.95F
HARTFORD       FAIR      61  59  93 CALM      29.95S
DANBURY        FAIR      60  58  92 CALM      29.97S
WTRBRY/OXFORD  CLOUDY    63  57  82 CALM      29.99R
BRIDGEPORT     FAIR      68  65  90 CALM      29.94F
MERIDEN        FAIR      58  56  93 CALM      29.95F
NEW HAVEN      FAIR      64  61  90 N3        29.95F
CHESTER        FOG       61  61 100 MISG      29.97S VSB<1/4
GROTON         CLOUDY    60  60 100 N3        29.96S
WILLIMANTIC    FAIR      57  54  89 N3        29.98S

 IN RI

CITY           SKY/WX    TMP DP  RH WIND       PRES   REMARKS
PROVIDENCE     FAIR      61  57  87 W3        29.97S
BLOCK ISLAND   FAIR      64  59  82 CALM      29.96S
WESTERLY       FAIR      59  57  93 CALM      29.96F

 IN MA

CITY           SKY/WX    TMP DP  RH WIND       PRES   REMARKS
BOSTON         FAIR      64  56  75 SW5       29.96F
WORCESTER      FAIR      61  53  75 W8        29.99S
WESTFIELD      FAIR      58  55  90 N3        29.96S
PROVINCETOWN   FAIR      59  55  88 MISG      29.97S
NANTUCKET      FAIR      58  55  90 SE3       29.96S
$$

ANZ330-335-338-340-345-350-353-355-200700-
COASTAL MARINE OBSERVATIONS


STATION/POSITION TIME  SKY/WX   TEMP    WIND        PRES    VSBY  WAVE
                                AIR SEA DIR/SP/G                  HT/PER
                 (UTC)          (F)     (DEG/KT/KT) (MB)    (MI)  (FT/S)
NY HARB ENTRANCE NOT AVBL
4S FIRE IS       NOT AVBL
23SW MTP         0600            68 69              1013.9          1/ 7
HUDSON CANYON    0600            72 73   70/ 10/ 12 1013.1          2/10
EXECUTION ROCKS  0600            70 72   CALM  /  2   N/A
WESTERN LI SOUND 0600            70      CALM  /  2   N/A           0
CENTRAL LI SOUND 0500            70 72  190/  4/  4   N/A           0
EASTERN LI SOUND 0500            67 68   90/  4/  6   N/A
ROBBINS REEF     0600            72     150/  6/  6   N/A
$$


>>>>>>>>>>>>>>>>>>>>>>>>>>>> KEY <<<<<<<<<<<<<<<<<<<<<<<<<<<
>                                                          <
>     SKY/WX - SKY CONDITION/PRESENT WEATHER               <
>     TMP    - TEMPERATURE IN FAHRENHEIT                   <
>     DP     - DEWPOINT IN FAHRENHEIT                      <
>     RH     - RELATIVE HUMIDITY IN PERCENT                <
>     WIND   - DIRECTION AND SPEED IN MPH                  <
>     PRES   - MEAN SEA LEVEL PRESSURE IN INCHES OF HG     <
>     WCI    - WIND CHILL INDEX                            <
>     VSB    - VISIBILITY IN MILES                         <
>     HX     - HEAT INDEX                                  <
>     TC     - TEMPERATURE IN CELSIUS                      <
>     VRB    - VARIABLE WIND DIRECTION                     <
>                                                          <
>>>>>>>>>>>>>>>>>>>>>>>>>>>> KEY <<<<<<<<<<<<<<<<<<<<<<<<<<<




USA.gov is the U.S. government's official web portal to all federal, state and local government web resources and services.